EA7JCM-13 Weather Reports


time (UTC)temp
F
wind
direction
speed
knots
gust
knots
rain 1hr
in
rain 24hr
in
rain mn
in
humidity
%
barometer
mb
20260507150504 70 110 1.7 9.6 0.00 0.00 0.00 42 1005.9
20260507150002 70 97 1.7 9.6 0.00 0.00 0.00 42 1006.0
20260507145503 70 123 3.5 7.0 0.00 0.00 0.00 41 1006.1
20260507145003 71 139 1.7 7.0 0.00 0.00 0.00 40 1005.9
20260507144502 69 168 4.3 7.8 0.00 0.00 0.00 42 1006.0
20260507144003 68 185 3.5 7.8 0.00 0.00 0.00 45 1006.1
20260507143503 67 182 5.2 9.6 0.00 0.00 0.00 45 1006.2
20260507143003 68 176 3.5 9.6 0.00 0.00 0.00 45 1006.2
20260507142503 69 169 3.5 9.6 0.00 0.00 0.00 45 1006.3
20260507142003 67 136 2.6 7.0 0.00 0.00 0.00 46 1006.6
20260507141502 67 142 1.7 7.0 0.00 0.00 0.00 45 1006.6
20260507141004 67 196 2.6 7.0 0.00 0.00 0.00 45 1006.6
20260507140503 67 198 2.6 9.6 0.00 0.00 0.00 45 1006.5
20260507140003 68 170 1.7 9.6 0.00 0.00 0.00 43 1006.4
20260507135503 68 118 6.1 9.6 0.00 0.00 0.00 43 1006.5
20260507135004 68 132 2.6 7.8 0.00 0.00 0.00 44 1006.6
20260507134502 69 169 2.6 7.8 0.00 0.00 0.00 42 1006.7
20260507134003 68 164 3.5 9.6 0.00 0.00 0.00 44 1006.8
20260507133503 69 185 0.0 9.6 0.00 0.00 0.00 45 1006.9
20260507133002 68 191 4.3 9.6 0.00 0.00 0.00 46 1006.7
20260507132503 68 188 4.3 9.6 0.00 0.00 0.00 46 1006.6
20260507132003 68 199 1.7 9.6 0.00 0.00 0.00 45 1006.8
20260507131503 67 196 2.6 9.6 0.00 0.00 0.00 48 1006.5
20260507131003 65 202 3.5 9.6 0.00 0.00 0.00 48 1006.5
20260507130502 66 209 7.0 9.6 0.00 0.00 0.00 47 1006.6
20260507130004 66 199 6.1 9.6 0.00 0.00 0.00 47 1006.7
20260507125502 66 201 6.1 7.8 0.00 0.00 0.00 46 1006.7
20260507125003 66 235 3.5 6.1 0.00 0.00 0.00 45 1006.7
20260507124503 67 259 1.7 5.2 0.00 0.00 0.00 44 1006.8
20260507124003 67 275 1.7 5.2 0.00 0.00 0.00 42 1006.7
20260507123503 68 317 1.7 3.5 0.00 0.00 0.00 41 1006.9
20260507123002 69 299 0.9 3.5 0.00 0.00 0.00 43 1006.8
20260507122503 69 236 0.9 3.5 0.00 0.00 0.00 43 1007.0
20260507122003 67 233 1.7 3.5 0.00 0.00 0.00 43 1006.9
20260507121503 67 238 1.7 6.1 0.00 0.00 0.00 43 1007.0
20260507121004 67 226 1.7 6.1 0.00 0.00 0.00 43 1007.0
20260507120503 68 238 1.7 3.5 0.00 0.00 0.00 42 1007.0
20260507120002 69 260 1.7 6.1 0.00 0.00 0.00 41 1007.3
20260507115503 67 228 3.5 6.1 0.00 0.00 0.00 41 1007.4
20260507115003 67 189 3.5 6.1 0.00 0.00 0.00 42 1007.4
20260507114503 68 1 3.5 5.2 0.00 0.00 0.00 41 1007.4
20260507114003 70 319 1.7 3.5 0.00 0.00 0.00 41 1007.2
20260507113503 69 356 0.9 3.5 0.00 0.00 0.00 40 1007.3
20260507113002 72 335 0.9 3.5 0.00 0.00 0.00 39 1007.5
20260507112502 69 277 1.7 6.1 0.00 0.00 0.00 41 1007.4
20260507112003 67 264 0.9 6.1 0.00 0.00 0.00 43 1007.6
20260507111504 68 258 1.7 7.8 0.00 0.00 0.00 43 1007.7
20260507111003 67 255 3.5 7.8 0.00 0.00 0.00 43 1007.9
20260507110503 67 252 4.3 7.8 0.00 0.00 0.00 43 1007.6
20260507110003 67 236 3.5 6.1 0.00 0.00 0.00 42 1007.7
20260507105503 67 245 1.7 6.1 0.00 0.00 0.00 43 1007.7
20260507105002 67 251 0.0 6.1 0.00 0.00 0.00 42 1007.4
20260507104503 66 241 0.9 7.0 0.00 0.00 0.00 42 1007.7
20260507104004 66 233 3.5 7.0 0.00 0.00 0.00 43 1007.8
20260507103503 66 205 1.7 5.2 0.00 0.00 0.00 44 1007.7
20260507103003 65 220 3.5 5.2 0.00 0.00 0.00 45 1007.8
20260507102502 66 257 0.9 5.2 0.00 0.00 0.00 44 1007.9
20260507102003 65 253 1.7 3.5 0.00 0.00 0.00 44 1008.0
20260507101503 64 259 1.7 3.5 0.00 0.00 0.00 45 1008.0
20260507101003 65 264 2.6 3.5 0.00 0.00 0.00 45 1008.0
20260507100503 65 260 1.7 3.5 0.00 0.00 0.00 44 1008.0
20260507100003 66 270 0.9 5.2 0.00 0.00 0.00 43 1007.9
20260507095503 64 266 0.9 5.2 0.00 0.00 0.00 45 1007.9
20260507095002 64 261 2.6 3.5 0.00 0.00 0.00 46 1007.9
20260507094503 64 256 0.9 6.1 0.00 0.00 0.00 44 1008.1
20260507094003 64 260 1.7 6.1 0.00 0.00 0.00 46 1008.0
20260507093503 64 244 2.6 5.2 0.00 0.00 0.00 46 1008.1
20260507093003 63 213 2.6 5.2 0.00 0.00 0.00 48 1008.1
20260507092503 63 203 3.5 5.2 0.00 0.00 0.00 49 1008.1
20260507092003 63 193 2.6 3.5 0.00 0.00 0.00 48 1008.1
20260507091503 64 242 1.7 3.5 0.00 0.00 0.00 48 1007.9
20260507091003 65 253 0.0 3.5 0.00 0.00 0.00 51 1007.8
20260507090502 63 248 0.9 5.2 0.00 0.00 0.00 53 1008.0
20260507090005 62 247 0.9 5.2 0.00 0.00 0.00 54 1008.2
20260507085503 61 242 3.5 3.5 0.00 0.00 0.00 55 1007.9
20260507085003 61 219 0.9 1.7 0.00 0.00 0.00 54 1007.8
20260507084503 61 160 0.9 1.7 0.00 0.00 0.00 53 1008.0
20260507084004 61 176 0.9 1.7 0.00 0.00 0.00 53 1008.2
20260507083502 61 208 0.0 1.7 0.00 0.00 0.00 53 1008.2
20260507083003 60 188 0.9 1.7 0.00 0.00 0.00 56 1008.3
20260507082503 59 177 0.9 1.7 0.00 0.00 0.00 58 1008.2
20260507082003 57 181 0.0 1.7 0.00 0.00 0.00 59 1008.2
20260507081503 58 195 1.7 3.5 0.00 0.00 0.00 59 1008.3
20260507081003 57 202 1.7 3.5 0.00 0.00 0.00 60 1008.3
20260507080504 57 232 1.7 3.5 0.00 0.00 0.00 60 1008.3
20260507080004 57 241 1.7 3.5 0.00 0.00 0.00 60 1008.3
20260507075505 57 209 1.7 1.7 0.00 0.00 0.00 60 1008.2
20260507075003 57 190 1.7 1.7 0.00 0.00 0.00 61 1008.2
20260507074503 57 181 0.0 1.7 0.00 0.00 0.00 61 1008.3
20260507074003 57 174 0.0 1.7 0.00 0.00 0.00 62 1008.2
20260507073504 57 165 0.9 1.7 0.00 0.00 0.00 61 1008.2
20260507073003 57 158 0.0 1.7 0.00 0.00 0.00 61 1008.1
20260507072504 57 151 0.0 1.7 0.00 0.00 0.00 62 1008.3
20260507072003 56 149 0.0 1.7 0.00 0.00 0.00 62 1008.2
20260507071504 56 154 0.0 1.7 0.00 0.00 0.00 62 1008.1
20260507071003 56 158 1.7 1.7 0.00 0.00 0.00 62 1008.0
20260507070503 56 153 0.9 1.7 0.00 0.00 0.00 63 1007.9
20260507070005 56 132 0.0 1.7 0.00 0.00 0.00 63 1007.9
20260507065503 55 116 0.0 1.7 0.00 0.00 0.00 65 1007.9
20260507065004 55 112 0.0 1.7 0.00 0.00 0.00 67 1007.9
20260507064503 54 114 0.9 1.7 0.00 0.00 0.00 67 1007.8
20260507064003 54 126 0.0 1.7 0.00 0.00 0.00 68 1007.7
20260507063503 54 115 0.0 1.7 0.00 0.00 0.00 70 1007.8
20260507063003 53 111 0.0 1.7 0.00 0.00 0.00 72 1007.6
20260507062503 53 113 0.9 1.7 0.00 0.00 0.00 72 1007.8
20260507062003 53 128 0.0 1.7 0.00 0.00 0.00 72 1007.3
20260507061504 53 121 0.0 1.7 0.00 0.00 0.00 72 1007.4
20260507061004 53 111 0.9 1.7 0.00 0.00 0.00 72 1007.5
20260507060503 53 111 0.9 1.7 0.00 0.00 0.00 72 1007.3
20260507060003 52 105 1.7 3.5 0.00 0.00 0.00 73 1007.3
20260507055503 51 102 1.7 3.5 0.00 0.00 0.00 74 1007.2
20260507055003 51 105 0.9 1.7 0.00 0.00 0.00 73 1007.3
20260507054504 52 109 0.9 3.5 0.00 0.00 0.00 73 1007.3
20260507054004 51 108 0.9 3.5 0.00 0.00 0.00 73 1007.0
20260507053503 51 101 0.9 1.7 0.00 0.00 0.00 73 1007.1
20260507053004 51 103 0.9 3.5 0.00 0.00 0.00 74 1006.9
20260507052503 51 106 1.7 3.5 0.00 0.00 0.00 74 1007.1
20260507052003 51 116 1.7 3.5 0.00 0.00 0.00 74 1007.1
20260507051503 52 130 0.9 1.7 0.00 0.00 0.00 72 1007.2
20260507051003 53 120 0.0 1.7 0.00 0.00 0.00 71 1006.9
20260507050503 53 119 0.0 1.7 0.00 0.00 0.00 70 1007.0
20260507050004 53 109 0.0 3.5 0.00 0.00 0.00 70 1006.9
20260507045504 53 94 0.9 3.5 0.00 0.00 0.00 70 1006.9
20260507045003 53 101 0.9 3.5 0.00 0.00 0.00 70 1006.9
20260507044503 53 114 0.0 3.5 0.00 0.00 0.00 69 1006.8
20260507044004 54 112 0.9 3.5 0.00 0.00 0.00 69 1006.7
20260507043503 54 120 0.9 1.7 0.00 0.00 0.00 69 1006.5
20260507043003 54 119 0.9 1.7 0.00 0.00 0.00 70 1006.5
20260507042504 54 133 0.9 1.7 0.00 0.00 0.00 70 1006.4
20260507042003 54 167 0.9 3.5 0.00 0.00 0.00 70 1006.7
20260507041503 54 191 0.9 3.5 0.00 0.00 0.00 70 1006.5
20260507041003 54 195 1.7 3.5 0.00 0.00 0.00 70 1006.4
20260507040503 54 174 1.7 3.5 0.00 0.00 0.00 70 1006.5
20260507040004 54 148 1.7 1.7 0.00 0.00 0.00 70 1006.7
20260507035504 54 166 0.0 1.7 0.00 0.00 0.00 69 1006.7
20260507035003 54 168 0.9 1.7 0.00 0.00 0.00 68 1006.5
20260507034504 54 181 1.7 3.5 0.00 0.00 0.00 68 1006.6
20260507034003 54 183 1.7 3.5 0.00 0.00 0.00 68 1006.4
20260507033504 54 176 1.7 3.5 0.00 0.00 0.00 67 1006.5
20260507033003 54 174 1.7 3.5 0.00 0.00 0.00 67 1006.6
20260507032504 54 163 0.9 3.5 0.00 0.00 0.00 67 1006.5
20260507032004 55 166 1.7 1.7 0.00 0.00 0.00 66 1006.4
20260507031503 55 178 0.9 1.7 0.00 0.00 0.00 66 1006.5
20260507031003 55 181 0.9 1.7 0.00 0.00 0.00 65 1006.2
20260507030503 56 126 0.0 1.7 0.00 0.00 0.00 64 1006.5
20260507030003 56 112 0.0 1.7 0.00 0.00 0.00 63 1006.6
20260507025504 56 112 1.7 3.5 0.00 0.00 0.00 62 1006.5
20260507025004 57 111 0.0 3.5 0.00 0.00 0.00 61 1006.5
20260507024503 57 124 1.7 3.5 0.00 0.00 0.00 61 1006.6
20260507024003 57 138 0.0 1.7 0.00 0.00 0.00 61 1006.6
20260507023504 57 120 0.0 1.7 0.00 0.00 0.00 60 1006.5
20260507023003 57 106 0.0 3.5 0.00 0.00 0.00 60 1006.7
20260507022503 57 124 0.9 3.5 0.00 0.00 0.00 60 1006.6
20260507022003 58 146 1.7 3.5 0.00 0.00 0.00 59 1006.7
20260507021503 58 132 0.9 3.5 0.00 0.00 0.00 59 1006.7
20260507021003 58 121 0.9 1.7 0.00 0.00 0.00 58 1006.7
20260507020503 58 136 0.0 3.5 0.00 0.00 0.00 59 1006.6
20260507020004 58 130 0.0 3.5 0.00 0.00 0.00 58 1006.5
20260507015503 58 114 0.9 3.5 0.00 0.00 0.00 58 1006.7
20260507015003 58 134 1.7 3.5 0.00 0.00 0.00 58 1006.8
20260507014503 58 122 0.9 3.5 0.00 0.00 0.00 58 1006.7
20260507014003 58 108 0.9 3.5 0.00 0.00 0.00 58 1006.8
20260507013503 58 126 1.7 3.5 0.00 0.00 0.00 57 1006.6
20260507013004 58 150 1.7 5.2 0.00 0.00 0.00 57 1006.7
20260507012503 58 148 1.7 5.2 0.00 0.00 0.00 58 1006.6
20260507012003 58 124 0.9 3.5 0.00 0.00 0.00 58 1006.9
20260507011504 58 114 1.7 3.5 0.00 0.00 0.00 58 1007.0
20260507011003 58 150 1.7 5.2 0.00 0.00 0.00 57 1006.9
20260507010503 58 156 0.9 5.2 0.00 0.00 0.00 57 1006.9
20260507010004 58 171 1.7 6.1 0.00 0.00 0.00 58 1006.9
20260507005503 58 175 1.7 6.1 0.00 0.00 0.00 58 1006.9
20260507005003 58 149 2.6 6.1 0.00 0.00 0.00 58 1007.0
20260507004504 58 142 1.7 6.1 0.00 0.00 0.00 58 1006.8
20260507004003 58 136 1.7 5.2 0.00 0.00 0.00 58 1006.8
20260507003504 58 129 1.7 6.1 0.00 0.00 0.00 58 1007.1
20260507003003 58 134 1.7 6.1 0.00 0.00 0.00 58 1007.0
20260507002503 58 154 3.5 7.8 0.00 0.00 0.00 57 1007.0
20260507002003 58 163 1.7 7.8 0.00 0.00 0.00 56 1007.2
20260507001503 58 151 1.7 6.1 0.00 0.00 0.00 55 1007.1
20260507001004 58 112 2.6 6.1 0.00 0.00 0.00 54 1007.0
20260507000503 58 136 2.6 7.0 0.00 0.00 0.00 52 1007.1
20260507000004 58 171 1.7 7.0 0.00 0.00 0.00 52 1007.2
20260506235504 58 179 3.5 7.0 0.00 0.00 0.00 52 1007.1
20260506235003 59 177 2.6 7.0 0.00 0.00 0.00 52 1007.1
20260506234504 59 178 2.6 9.6 0.00 0.00 0.00 51 1007.1
20260506234003 59 196 3.5 9.6 0.00 0.00 0.00 50 1007.4
20260506233503 60 193 5.2 9.6 0.00 0.00 0.00 49 1007.3
20260506233003 60 181 3.5 9.6 0.00 0.00 0.00 48 1007.1
20260506232503 60 138 6.1 9.6 0.00 0.00 0.00 46 1007.1
20260506232003 61 102 2.6 3.5 0.00 0.00 0.00 44 1006.8
20260506231504 61 103 3.5 3.5 0.00 0.00 0.00 44 1007.0
20260506231004 61 98 1.7 3.5 0.00 0.00 0.00 44 1006.8
20260506230503 61 94 2.6 3.5 0.00 0.00 0.00 43 1006.7
20260506230004 62 98 3.5 3.5 0.00 0.00 0.00 43 1006.7
20260506225504 62 96 2.6 3.5 0.00 0.00 0.00 42 1006.7
20260506225003 62 94 1.7 3.5 0.00 0.00 0.00 42 1006.8
20260506224503 62 95 3.5 3.5 0.00 0.00 0.00 42 1006.5
20260506224003 62 91 1.7 3.5 0.00 0.00 0.00 42 1006.6
20260506223504 62 93 1.7 3.5 0.00 0.00 0.00 42 1006.7
20260506223003 62 94 1.7 3.5 0.00 0.00 0.00 42 1006.5
20260506222503 63 92 1.7 3.5 0.00 0.00 0.00 41 1006.6
20260506222004 63 95 1.7 3.5 0.00 0.00 0.00 41 1006.7
20260506221504 63 96 1.7 3.5 0.00 0.00 0.00 41 1006.6
20260506221004 63 92 2.6 3.5 0.00 0.00 0.00 41 1006.6
20260506220503 63 94 0.9 3.5 0.00 0.00 0.00 42 1006.5
20260506220007 62 92 1.7 3.5 0.00 0.00 0.00 42 1006.7
20260506215503 62 92 1.7 3.5 0.00 0.00 0.00 41 1006.8
20260506215004 62 102 1.7 3.5 0.00 0.00 0.00 41 1006.6
20260506214504 62 97 1.7 3.5 0.00 0.00 0.00 41 1006.6
20260506214003 62 93 1.7 3.5 0.00 0.00 0.00 41 1006.6
20260506213504 62 96 2.6 3.5 0.00 0.00 0.00 41 1006.7
20260506213004 62 94 3.5 3.5 0.00 0.00 0.00 41 1006.7
20260506212503 62 94 2.6 5.2 0.00 0.00 0.00 42 1006.7
20260506212004 61 94 2.6 5.2 0.00 0.00 0.00 42 1006.7
20260506211503 61 94 2.6 5.2 0.00 0.00 0.00 42 1006.7
20260506211004 62 99 2.6 3.5 0.00 0.00 0.00 42 1006.6
20260506210503 62 102 2.6 3.5 0.00 0.00 0.00 41 1006.7
20260506210004 62 98 2.6 5.2 0.00 0.00 0.00 41 1006.6
20260506205504 62 90 2.6 5.2 0.00 0.00 0.00 41 1006.6
20260506205004 62 91 2.6 5.2 0.00 0.00 0.00 41 1006.5
20260506204503 62 98 2.6 5.2 0.00 0.00 0.00 41 1006.4
20260506204004 62 96 2.6 5.2 0.00 0.00 0.00 41 1006.3
20260506203503 62 98 1.7 3.5 0.00 0.00 0.00 41 1006.3
20260506203003 62 101 1.7 3.5 0.00 0.00 0.00 41 1006.4
20260506202504 62 97 2.6 3.5 0.00 0.00 0.00 40 1006.3
20260506202003 62 100 1.7 3.5 0.00 0.00 0.00 41 1006.1
20260506201503 63 104 1.7 3.5 0.00 0.00 0.00 40 1006.2
20260506201001 63 109 1.7 3.5 0.00 0.00 0.00 40 1006.3
20260506200501 63 105 1.7 3.5 0.00 0.00 0.00 39 1006.1
20260506200002 64 104 2.6 3.5 0.00 0.00 0.00 38 1006.1
20260506195502 64 107 1.7 3.5 0.00 0.00 0.00 37 1005.9
20260506195001 64 114 2.6 3.5 0.00 0.00 0.00 37 1005.9
20260506194501 65 143 1.7 1.7 0.00 0.00 0.00 35 1006.1
20260506194001 65 166 0.9 1.7 0.00 0.00 0.00 33 1005.7
20260506193501 66 184 0.9 3.5 0.00 0.00 0.00 33 1005.8
20260506193001 66 193 0.9 3.5 0.00 0.00 0.00 32 1005.6
20260506192501 66 205 1.7 3.5 0.00 0.00 0.00 32 1005.7
20260506192001 66 218 0.9 3.5 0.00 0.00 0.00 31 1005.9
20260506191501 67 217 1.7 3.5 0.00 0.00 0.00 31 1005.7
20260506191001 67 212 1.7 3.5 0.00 0.00 0.00 30 1005.6
20260506190502 67 223 1.7 3.5 0.00 0.00 0.00 29 1005.6
20260506190002 68 234 1.7 3.5 0.00 0.00 0.00 28 1005.6
20260506185501 68 237 1.7 3.5 0.00 0.00 0.00 27 1005.6
20260506185001 69 235 1.7 3.5 0.00 0.00 0.00 27 1005.6
20260506184502 69 228 2.6 5.2 0.00 0.00 0.00 27 1005.5
20260506184002 69 219 1.7 5.2 0.00 0.00 0.00 28 1005.8
20260506183503 69 214 2.6 5.2 0.00 0.00 0.00 28 1005.5
20260506183002 69 211 3.5 5.2 0.00 0.00 0.00 27 1005.5
20260506182502 69 211 1.7 6.1 0.00 0.00 0.00 28 1005.5
20260506182001 68 209 4.3 6.1 0.00 0.00 0.00 28 1005.6
20260506181502 70 192 1.7 5.2 0.00 0.00 0.00 29 1005.6
20260506181002 69 212 1.7 6.1 0.00 0.00 0.00 29 1005.5
20260506180502 69 234 3.5 6.1 0.00 0.00 0.00 29 1005.5
20260506180002 70 219 1.7 6.1 0.00 0.00 0.00 28 1005.7
20260506175502 69 204 3.5 6.1 0.00 0.00 0.00 27 1005.7
20260506175001 69 218 2.6 6.1 0.00 0.00 0.00 29 1005.7
20260506174502 69 235 3.5 6.1 0.00 0.00 0.00 31 1005.8
20260506174001 69 243 3.5 6.1 0.00 0.00 0.00 32 1005.9
20260506173501 69 238 2.6 7.8 0.00 0.00 0.00 32 1005.8
20260506173002 69 236 1.7 7.8 0.00 0.00 0.00 32 1005.7
20260506172503 69 245 6.1 7.8 0.00 0.00 0.00 31 1005.8
20260506172002 69 235 2.6 6.1 0.00 0.00 0.00 31 1006.0
20260506171502 69 218 3.5 7.8 0.00 0.00 0.00 31 1006.0
20260506171001 68 226 2.6 7.8 0.00 0.00 0.00 32 1005.9
20260506170502 69 230 1.7 7.0 0.00 0.00 0.00 32 1005.8
20260506170002 70 227 4.3 7.0 0.00 0.00 0.00 31 1006.1
20260506165501 71 221 1.7 7.8 0.00 0.00 0.00 31 1006.0
20260506165001 70 225 1.7 7.8 0.00 0.00 0.00 31 1005.9
20260506164502 70 248 3.5 7.8 0.00 0.00 0.00 31 1005.9
20260506164001 71 247 3.5 9.6 0.00 0.00 0.00 30 1005.9
20260506163501 70 253 2.6 9.6 0.00 0.00 0.00 31 1006.1
20260506163002 69 264 4.3 9.6 0.00 0.00 0.00 32 1006.1
20260506162501 69 261 3.5 9.6 0.00 0.00 0.00 32 1006.0
20260506162002 70 251 3.5 7.0 0.00 0.00 0.00 32 1006.0
20260506161501 69 256 3.5 7.8 0.00 0.00 0.00 32 1006.0
20260506161001 70 255 3.5 9.6 0.00 0.00 0.00 31 1006.1
20260506160502 70 242 3.5 9.6 0.00 0.00 0.00 32 1006.0
20260506160001 68 251 4.3 7.8 0.00 0.00 0.00 32 1006.0
20260506155501 69 270 4.3 9.6 0.00 0.00 0.00 32 1006.1
20260506155002 71 258 1.7 9.6 0.00 0.00 0.00 32 1006.1
20260506154501 70 242 3.5 9.6 0.00 0.00 0.00 32 1006.2
20260506154001 72 259 3.5 7.8 0.00 0.00 0.00 31 1006.2
20260506153502 71 263 2.6 7.8 0.00 0.00 0.00 31 1006.1
20260506153001 70 257 1.7 9.6 0.00 0.00 0.00 32 1006.1
20260506152501 69 246 6.1 9.6 0.00 0.00 0.00 32 1006.1
20260506152003 69 223 2.6 7.8 0.00 0.00 0.00 32 1006.2
20260506151502 69 210 5.2 7.8 0.00 0.00 0.00 32 1006.3
20260506151001 69 233 3.5 7.8 0.00 0.00 0.00 32 1006.3